TimeEEST,TemperatureF,Dew PointF,Humidity,Sea Level PressureIn,VisibilityMPH,Wind Direction,Wind SpeedMPH,Gust SpeedMPH,PrecipitationIn,Events,Conditions,WindDirDegrees,DateUTC
12:20 AM,62.6,48.2,59,30.15,6.2,ENE,11.5,-,N/A,,Scattered Clouds,60,2012-10-02 21:20:00
12:50 AM,62.6,46.4,55,30.15,6.2,NE,9.2,-,N/A,,Scattered Clouds,40,2012-10-02 21:50:00
1:20 AM,60.8,48.2,63,30.15,6.2,NNE,4.6,-,N/A,,Scattered Clouds,30,2012-10-02 22:20:00
1:50 AM,57.2,46.4,67,30.12,6.2,NNE,6.9,-,N/A,,Scattered Clouds,20,2012-10-02 22:50:00
2:20 AM,55.4,46.4,72,30.12,6.2,Variable,2.3,-,N/A,,Scattered Clouds,0,2012-10-02 23:20:00
2:50 AM,53.6,46.4,77,30.12,6.2,Calm,Calm,-,N/A,,Scattered Clouds,0,2012-10-02 23:50:00
3:00 AM,54,46,68,,12,Calm,Calm,,,,Partly Cloudy,,2012-10-03 00:00:00
3:20 AM,51.8,44.6,76,30.12,6.2,NNE,2.3,-,N/A,,Scattered Clouds,30,2012-10-03 00:20:00
3:50 AM,53.6,46.4,77,30.12,6.2,Variable,2.3,-,N/A,,Scattered Clouds,0,2012-10-03 00:50:00
4:20 AM,51.8,46.4,82,30.15,6.2,Variable,1.2,-,N/A,,Scattered Clouds,0,2012-10-03 01:20:00
4:50 AM,53.6,48.2,82,30.15,6.2,Variable,2.3,-,N/A,,Mostly Cloudy,0,2012-10-03 01:50:00
5:20 AM,57.2,48.2,72,30.09,6.2,NNE,11.5,-,N/A,,Mostly Cloudy,20,2012-10-03 02:20:00
5:50 AM,62.6,44.6,52,30.09,6.2,Variable,5.8,-,N/A,,Mostly Cloudy,0,2012-10-03 02:50:00
6:20 AM,60.8,46.4,59,30.15,6.2,South,9.2,-,N/A,Thunderstorm,Thunderstorm,190,2012-10-03 03:20:00
6:50 AM,59.0,48.2,67,30.12,6.2,NE,9.2,-,N/A,Rain-Thunderstorm,Light Thunderstorms and Rain,40,2012-10-03 03:50:00
7:20 AM,59.0,50.0,72,30.15,6.2,East,12.7,-,N/A,,Mostly Cloudy,80,2012-10-03 04:20:00
7:50 AM,62.6,46.4,55,30.09,6.2,NE,12.7,-,N/A,,Mostly Cloudy,50,2012-10-03 04:50:00
8:20 AM,60.8,50.0,68,30.09,6.2,North,5.8,-,N/A,,Mostly Cloudy,350,2012-10-03 05:20:00
8:50 AM,62.6,50.0,63,30.12,6.2,North,8.1,-,N/A,,Mostly Cloudy,360,2012-10-03 05:50:00
9:00 AM,63,49,49,,12,North,8.1,,,,Partly Cloudy,0,2012-10-03 06:00:00
9:20 AM,64.4,50.0,59,30.12,6.2,North,4.6,-,N/A,,Mostly Cloudy,10,2012-10-03 06:20:00
9:50 AM,66.2,50.0,56,30.12,6.2,ENE,9.2,-,N/A,,Mostly Cloudy,70,2012-10-03 06:50:00
10:20 AM,66.2,51.8,60,30.12,6.2,East,5.8,-,N/A,,Mostly Cloudy,80,2012-10-03 07:20:00
10:50 AM,66.2,51.8,60,30.09,6.2,NNE,5.8,-,N/A,,Mostly Cloudy,30,2012-10-03 07:50:00
11:20 AM,68.0,51.8,56,30.09,6.2,NNE,9.2,-,N/A,,Mostly Cloudy,30,2012-10-03 08:20:00
11:50 AM,73.4,48.2,41,30.09,6.2,ENE,5.8,-,N/A,,Mostly Cloudy,70,2012-10-03 08:50:00
12:20 PM,73.4,48.2,41,30.06,6.2,ESE,8.1,-,N/A,,Mostly Cloudy,110,2012-10-03 09:20:00
12:50 PM,75.2,48.2,38,30.06,6.2,ESE,6.9,-,N/A,,Mostly Cloudy,110,2012-10-03 09:50:00
1:20 PM,77.0,46.4,34,30.06,6.2,SE,5.8,-,N/A,,Scattered Clouds,140,2012-10-03 10:20:00
1:50 PM,77.0,48.2,36,30.04,6.2,East,3.5,-,N/A,,Mostly Cloudy,90,2012-10-03 10:50:00
2:20 PM,78.8,44.6,30,30.01,6.2,East,4.6,-,N/A,,Scattered Clouds,90,2012-10-03 11:20:00
2:50 PM,75.2,46.4,36,30.01,6.2,SE,5.8,-,N/A,Thunderstorm,Thunderstorm,130,2012-10-03 11:50:00
3:00 PM,76,45,23,,12,SE,5.8,,,Thunderstorm,Thunderstorm,130,2012-10-03 12:00:00
3:20 PM,73.4,42.8,33,30.01,6.2,WSW,9.2,-,N/A,,Scattered Clouds,240,2012-10-03 12:20:00
3:50 PM,69.8,50.0,49,30.01,6.2,WSW,15.0,28.8,N/A,Rain-Thunderstorm,Light Thunderstorms and Rain,240,2012-10-03 12:50:00
4:20 PM,66.2,48.2,52,30.04,6.2,West,12.7,-,N/A,Rain-Thunderstorm,Light Thunderstorms and Rain,270,2012-10-03 13:20:00
4:50 PM,62.6,53.6,72,30.06,6.2,SSE,5.8,-,N/A,Rain,Light Rain Showers,160,2012-10-03 13:50:00
5:20 PM,62.6,53.6,72,30.04,6.2,SE,4.6,-,N/A,,Mostly Cloudy,130,2012-10-03 14:20:00
5:50 PM,62.6,55.4,77,30.04,6.2,NNE,5.8,-,N/A,,Mostly Cloudy,30,2012-10-03 14:50:00
6:20 PM,60.8,55.4,82,30.04,6.2,NE,9.2,-,N/A,,Mostly Cloudy,50,2012-10-03 15:20:00
6:50 PM,60.8,53.6,77,30.04,6.2,North,6.9,-,N/A,,Mostly Cloudy,360,2012-10-03 15:50:00
7:20 PM,60.8,53.6,77,30.04,6.2,North,9.2,-,N/A,,Mostly Cloudy,10,2012-10-03 16:20:00
7:50 PM,60.8,51.8,72,30.04,6.2,Variable,2.3,-,N/A,,Mostly Cloudy,0,2012-10-03 16:50:00
8:20 PM,60.8,53.6,77,30.06,6.2,Variable,2.3,-,N/A,,Mostly Cloudy,0,2012-10-03 17:20:00
8:50 PM,59.0,53.6,82,30.06,6.2,Calm,Calm,-,N/A,,Mostly Cloudy,0,2012-10-03 17:50:00
9:00 PM,60,54,74,,12,Calm,Calm,,,,Partly Cloudy,,2012-10-03 18:00:00
9:20 PM,59.0,53.6,82,30.06,6.2,Variable,1.2,-,N/A,,Mostly Cloudy,0,2012-10-03 18:20:00
9:50 PM,59.0,53.6,82,30.06,6.2,Variable,1.2,-,N/A,,Scattered Clouds,0,2012-10-03 18:50:00
10:20 PM,57.2,53.6,88,30.06,6.2,North,4.6,-,N/A,,Scattered Clouds,10,2012-10-03 19:20:00
10:50 PM,55.4,51.8,88,30.06,6.2,Variable,2.3,-,N/A,,Scattered Clouds,0,2012-10-03 19:50:00
11:20 PM,53.6,51.8,94,30.06,6.2,Calm,Calm,-,N/A,,Scattered Clouds,0,2012-10-03 20:20:00
11:50 PM,55.4,51.8,88,30.06,6.2,Variable,1.2,-,N/A,,Scattered Clouds,0,2012-10-03 20:50:00